User: anonymous   Login
Location: Newsoms
(36.6240°N, 77.1250°W)
Time: 01:44:44
(UTC-04:00)
Language:

BREEZE-M DEB (TANK) - Orbit

View from above orbital plane
View from above orbital plane
View from above satellite
View from above satellite

Ground track
Ground track

The orbit data is extracted from the following two-line orbital elements,

1 29649U 06056B   15153.13622182  .00002974  00000-0  85395-3 0  9992
2 29649 049.4925 057.7954 5383384 057.1350 036.1638 04.96674709150574
Epoch (UTC): 02 June 2015 03:16:09
Eccentricity: 0.5383384
inclination: 49.4925°
perigee height: 321 km
apogee height: 15944 km
right ascension of ascending node: 57.7954°
argument of perigee: 57.1350°
revolutions per day: 4.96674709
mean anomaly at epoch: 36.1638°
orbit number at epoch: 15057

The dashed part of the orbit path shows where the satellite is in the earth's shadow,  

DLR